Regional Weather Roundup
Issued by NWS

Home | Current Version | Previous Version | Graphics & Text | Print | Product List | Glossary On
Versions: 1 2 3 4 5 6 7 8 9 10 11 12 13 14 15 16 17 18 19 20 21 22 23 24 25 26 27 28 29 30 31 32 33 34 35 36 37 38 39 40 41 42 43 44 45 46 47 48 49 50
000
ASUS43 KBIS 030110
RWRND

NORTH DAKOTA REGIONAL WEATHER ROUNDUP
NATIONAL WEATHER SERVICE BISMARCK ND
800 PM CDT THU JUL 02 2015

NOTE: "FAIR" INDICATES FEW OR NO CLOUDS BELOW 12,000 FEET WITH NO
SIGNIFICANT WEATHER AND/OR OBSTRUCTIONS TO VISIBILITY.


NDZ001>003-009>011-017-030200-
NORTHWEST NORTH DAKOTA

CITY           SKY/WX    TMP DP  RH WIND       PRES   REMARKS
WILLISTON      SUNNY     83  57  41 NW8       29.99S
MINOT          CLOUDY    75  64  68 NW8       29.95S HAZE
MINOT AFB      PTSUNNY   78  71  77 NW7       29.94S HAZE
$$

NDZ018>021-031>035-040>046-030200-
SOUTHWEST NORTH DAKOTA

CITY           SKY/WX    TMP DP  RH WIND       PRES   REMARKS
BISMARCK       CLOUDY    76  62  62 N5        29.97S HAZE
DICKINSON      SUNNY     77  59  53 N9        30.00S
GARRISON         N/A     75  65  70 N7        29.97R
HETTINGER ARPT SUNNY     75  59  57 N6        30.04S HAZE
$$

NDZ004>008-012>016-024-026-027-054-030200-
NORTHEAST NORTH DAKOTA

CITY           SKY/WX    TMP DP  RH WIND       PRES   REMARKS
GRAND FORKS    PTSUNNY   75  67  76 S3        29.87S
GRND FRKS AFB  PTSUNNY   76  67  74 W6        29.89S
DEVILS LAKE    SUNNY     73  61  64 W6        29.92S
$$

NDZ022-023-025-028>030-036>039-047>053-030200-
SOUTHEAST NORTH DAKOTA

CITY           SKY/WX    TMP DP  RH WIND       PRES   REMARKS
FARGO          PTSUNNY   73  54  51 S10       29.92F
JAMESTOWN      MOSUNNY   75  64  68 S5        29.93S
$$




USA.gov is the U.S. government's official web portal to all federal, state and local government web resources and services.